�������l�o���
Date,Time,MP-1(��Sv/h),MP-2(��Sv/h),MP-3(��Sv/h),MP-4(��Sv/h),MP-5(��Sv/h),MP-6(��Sv/h),MP-7(��Sv/h),����,����(m/s),���J
2020/10/05,00:00,0.177,0.158,0.257,0.246,0.244,0.139,0.085,��,6.1,��
2020/10/05,00:10,0.179,0.160,0.259,0.245,0.244,0.139,0.084,��,5.4,��
2020/10/05,00:20,0.177,0.160,0.257,0.247,0.245,0.139,0.085,��,5.2,��
2020/10/05,00:30,0.178,0.160,0.258,0.245,0.244,0.140,0.084,��쓌,6.0,��
2020/10/05,00:40,0.178,0.160,0.258,0.245,0.246,0.139,0.084,��쓌,6.3,��
2020/10/05,00:50,0.176,0.159,0.258,0.246,0.244,0.139,0.085,��,5.3,��
2020/10/05,01:00,0.179,0.160,0.259,0.245,0.246,0.140,0.084,��,4.1,��
2020/10/05,01:10,0.177,0.159,0.258,0.246,0.245,0.139,0.085,��쐼,3.6,��
2020/10/05,01:20,0.179,0.161,0.259,0.244,0.243,0.140,0.084,��쐼,4.6,��
2020/10/05,01:30,0.177,0.160,0.257,0.245,0.248,0.139,0.085,��쐼,4.6,��
2020/10/05,01:40,0.177,0.160,0.259,0.244,0.243,0.139,0.084,��,4.2,��
2020/10/05,01:50,0.176,0.160,0.258,0.243,0.245,0.140,0.084,��,4.9,��
2020/10/05,02:00,0.176,0.160,0.258,0.246,0.245,0.139,0.084,��,5.8,��
2020/10/05,02:10,0.178,0.159,0.259,0.243,0.244,0.140,0.084,��,4.8,�L
2020/10/05,02:20,0.177,0.160,0.257,0.246,0.246,0.140,0.085,��,5.0,��
2020/10/05,02:30,0.178,0.159,0.259,0.244,0.244,0.139,0.084,��,4.8,��
2020/10/05,02:40,0.178,0.159,0.257,0.245,0.246,0.140,0.084,��,5.4,�L
2020/10/05,02:50,0.177,0.161,0.258,0.247,0.245,0.139,0.085,��,5.6,�L
2020/10/05,03:00,0.178,0.160,0.258,0.243,0.245,0.140,0.085,��,4.6,�L
2020/10/05,03:10,0.177,0.161,0.258,0.246,0.246,0.141,0.085,��,5.0,��
2020/10/05,03:20,0.179,0.161,0.260,0.243,0.245,0.140,0.084,��쐼,4.6,�L
2020/10/05,03:30,0.178,0.160,0.258,0.247,0.247,0.141,0.085,��,5.1,�L
2020/10/05,03:40,0.178,0.161,0.260,0.247,0.244,0.141,0.086,��,5.3,�L
2020/10/05,03:50,0.178,0.159,0.258,0.246,0.245,0.140,0.085,��쐼,3.2,��
2020/10/05,04:00,0.177,0.161,0.260,0.248,0.247,0.141,0.085,�쐼,4.2,��
2020/10/05,04:10,0.179,0.161,0.257,0.244,0.244,0.140,0.084,�쐼,3.0,��
2020/10/05,04:20,0.178,0.161,0.257,0.245,0.247,0.139,0.084,��쐼,2.9,��
2020/10/05,04:30,0.177,0.160,0.260,0.245,0.246,0.139,0.084,���쐼,4.5,��
2020/10/05,04:40,0.178,0.160,0.256,0.245,0.244,0.140,0.085,��쐼,4.9,�L
2020/10/05,04:50,0.177,0.160,0.260,0.246,0.247,0.140,0.085,�쐼,4.3,�L
2020/10/05,05:00,0.179,0.159,0.257,0.246,0.244,0.140,0.085,��쐼,5.3,��
2020/10/05,05:10,0.177,0.161,0.258,0.246,0.247,0.139,0.084,��쐼,4.7,��
2020/10/05,05:20,0.178,0.159,0.259,0.244,0.245,0.140,0.085,��쐼,3.0,��
2020/10/05,05:30,0.178,0.161,0.258,0.247,0.245,0.140,0.084,��,1.8,�L
2020/10/05,05:40,0.177,0.161,0.259,0.245,0.247,0.141,0.085,��쐼,2.2,�L
2020/10/05,05:50,0.179,0.161,0.259,0.246,0.245,0.141,0.085,�쐼,3.4,�L
2020/10/05,06:00,0.179,0.161,0.261,0.247,0.248,0.141,0.086,��쐼,4.6,�L
2020/10/05,06:10,0.181,0.163,0.262,0.247,0.248,0.142,0.087,�쐼,6.3,�L
2020/10/05,06:20,0.181,0.163,0.261,0.249,0.248,0.142,0.087,���쐼,6.8,�L
2020/10/05,06:30,0.180,0.162,0.260,0.247,0.247,0.142,0.087,�쐼,8.6,��
2020/10/05,06:40,0.181,0.162,0.260,0.248,0.245,0.142,0.086,�쐼,10.1,��
2020/10/05,06:50,0.178,0.163,0.261,0.247,0.248,0.141,0.085,�쐼,6.2,��
2020/10/05,07:00,0.180,0.161,0.258,0.247,0.246,0.141,0.085,�쐼,4.8,��
2020/10/05,07:10,0.178,0.160,0.261,0.248,0.246,0.141,0.086,���쐼,5.1,��
2020/10/05,07:20,0.179,0.159,0.258,0.243,0.247,0.140,0.085,��쐼,5.9,��
2020/10/05,07:30,0.179,0.160,0.259,0.247,0.244,0.141,0.085,��,5.2,��
2020/10/05,07:40,0.178,0.160,0.260,0.244,0.247,0.139,0.086,��,5.8,��
2020/10/05,07:50,0.180,0.160,0.258,0.246,0.245,0.140,0.085,��쐼,4.0,��
2020/10/05,08:00,0.178,0.161,0.260,0.245,0.244,0.141,0.086,��쐼,6.2,��
2020/10/05,08:10,0.178,0.160,0.258,0.244,0.247,0.139,0.085,��쐼,5.2,��
2020/10/05,08:20,0.179,0.160,0.258,0.246,0.243,0.140,0.084,�쐼,5.2,��
2020/10/05,08:30,0.178,0.160,0.258,0.243,0.246,0.139,0.085,��쐼,5.1,��
2020/10/05,08:40,0.179,0.159,0.257,0.244,0.245,0.139,0.084,��,3.6,��
2020/10/05,08:50,0.178,0.160,0.259,0.246,0.243,0.140,0.084,��쓌,3.0,��
2020/10/05,09:00,0.177,0.160,0.259,0.245,0.244,0.140,0.085,��,2.6,��
2020/10/05,09:10,0.179,0.160,0.256,0.244,0.246,0.139,0.084,��,2.8,��
2020/10/05,09:20,0.179,0.160,0.260,0.247,0.244,0.140,0.084,��쓌,2.7,��
2020/10/05,09:30,0.177,0.160,0.259,0.245,0.245,0.140,0.085,��쓌,2.9,��
2020/10/05,09:40,0.180,0.160,0.257,0.246,0.246,0.140,0.085,��,3.9,��
2020/10/05,09:50,0.178,0.160,0.259,0.247,0.243,0.140,0.084,��,2.6,��
2020/10/05,10:00,0.177,0.160,0.258,0.244,0.246,0.140,0.085,��쓌,1.8,��
2020/10/05,10:10,0.179,0.160,0.257,0.246,0.247,0.139,0.084,��,1.5,��
2020/10/05,10:20,0.177,0.160,0.260,0.245,0.244,0.140,0.085,��,1.1,��
2020/10/05,10:30,0.177,0.159,0.258,0.244,0.245,0.140,0.086,��쓌,1.1,��
2020/10/05,10:40,0.179,0.160,0.256,0.247,0.247,0.139,0.085,�쓌,1.6,��
2020/10/05,10:50,0.178,0.160,0.259,0.246,0.246,0.140,0.084,��,0.7,��
2020/10/05,11:00,0.177,0.160,0.259,0.245,0.242,0.140,0.085,�k,1.2,��
2020/10/05,11:10,0.179,0.161,0.257,0.245,0.246,0.140,0.084,�k,1.4,��
2020/10/05,11:20,0.179,0.160,0.260,0.247,0.246,0.138,0.084,�k�k��,1.4,��
2020/10/05,11:30,0.176,0.160,0.260,0.244,0.245,0.141,0.085,�k,2.4,��
2020/10/05,11:40,0.178,0.160,0.257,0.243,0.244,0.140,0.085,�k�k��,3.8,��
2020/10/05,11:50,0.179,0.161,0.259,0.247,0.248,0.140,0.085,�k��,5.2,�L
2020/10/05,12:00,0.177,0.160,0.260,0.246,0.246,0.140,0.085,���k��,5.1,�L
2020/10/05,12:10,0.179,0.161,0.258,0.243,0.244,0.141,0.085,���k��,3.8,�L
2020/10/05,12:20,0.180,0.162,0.261,0.246,0.247,0.141,0.085,���k��,4.2,��
2020/10/05,12:30,0.178,0.162,0.260,0.247,0.248,0.141,0.085,���k��,4.5,��
2020/10/05,12:40,0.178,0.161,0.257,0.245,0.243,0.141,0.085,�k��,3.8,�L
2020/10/05,12:50,0.180,0.161,0.260,0.248,0.248,0.139,0.085,�k��,3.2,��
2020/10/05,13:00,0.178,0.160,0.260,0.245,0.246,0.140,0.084,�k�k��,3.6,��
2020/10/05,13:10,0.178,0.160,0.256,0.244,0.244,0.140,0.086,�k�k��,4.8,��
2020/10/05,13:20,0.180,0.162,0.261,0.249,0.244,0.140,0.084,�k�k��,4.8,��
2020/10/05,13:30,0.177,0.160,0.260,0.245,0.246,0.140,0.085,�k�k��,4.0,��
2020/10/05,13:40,0.178,0.161,0.257,0.245,0.245,0.139,0.084,�k�k��,2.7,��
2020/10/05,13:50,0.179,0.162,0.260,0.248,0.242,0.140,0.085,�k�k��,3.0,��
2020/10/05,14:00,0.177,0.160,0.260,0.245,0.247,0.140,0.084,�k�k��,2.5,��
2020/10/05,14:10,0.177,0.161,0.257,0.244,0.247,0.140,0.085,�k�k��,3.5,��
2020/10/05,14:20,0.178,0.162,0.259,0.246,0.244,0.141,0.085,�k,2.1,��
2020/10/05,14:30,0.180,0.161,0.259,0.246,0.244,0.139,0.084,�k�k��,3.4,��
2020/10/05,14:40,0.177,0.160,0.256,0.243,0.247,0.138,0.084,�k�k��,2.9,��
2020/10/05,14:50,0.178,0.161,0.258,0.245,0.245,0.139,0.085,�k�k��,3.8,��
2020/10/05,15:00,0.178,0.160,0.259,0.247,0.244,0.140,0.085,�k�k��,5.1,��
2020/10/05,15:10,0.178,0.160,0.259,0.246,0.248,0.139,0.083,�k�k��,4.3,��
2020/10/05,15:20,0.178,0.162,0.259,0.244,0.246,0.139,0.085,�k,3.6,��
2020/10/05,15:30,0.178,0.161,0.259,0.248,0.243,0.141,0.086,�k,2.9,��
2020/10/05,15:40,0.177,0.160,0.257,0.245,0.246,0.139,0.083,�k,3.9,��
2020/10/05,15:50,0.178,0.162,0.260,0.246,0.246,0.139,0.085,�k,3.6,��
2020/10/05,16:00,0.179,0.160,0.259,0.246,0.244,0.139,0.084,�k,3.3,��
2020/10/05,16:10,0.178,0.160,0.258,0.244,0.246,0.140,0.084,�k��,6.6,��
2020/10/05,16:20,0.179,0.161,0.262,0.247,0.246,0.140,0.085,�k��,5.5,��
2020/10/05,16:30,0.178,0.160,0.258,0.246,0.243,0.141,0.084,�k��,6.5,��
2020/10/05,16:40,0.178,0.161,0.262,0.246,0.246,0.139,0.085,�k��,3.2,��
2020/10/05,16:50,0.179,0.160,0.258,0.247,0.246,0.140,0.085,�k��,3.9,��
2020/10/05,17:00,0.176,0.161,0.260,0.245,0.244,0.141,0.085,�k��,6.0,��
2020/10/05,17:10,0.180,0.159,0.260,0.246,0.247,0.140,0.085,�k�k��,5.4,��
2020/10/05,17:20,0.178,0.161,0.257,0.245,0.245,0.140,0.084,�k��,4.3,��
2020/10/05,17:30,0.177,0.161,0.261,0.247,0.244,0.140,0.085,���k��,5.1,��
2020/10/05,17:40,0.179,0.160,0.258,0.247,0.246,0.140,0.084,�k��,4.5,��
2020/10/05,17:50,0.178,0.162,0.261,0.246,0.244,0.140,0.083,�k��,5.8,��
2020/10/05,18:00,0.180,0.159,0.258,0.246,0.247,0.139,0.085,�k��,6.1,��
2020/10/05,18:10,0.179,0.162,0.259,0.246,0.245,0.140,0.084,�k��,8.4,��
2020/10/05,18:20,0.179,0.160,0.260,0.248,0.248,0.140,0.085,�k��,5.4,��
2020/10/05,18:30,0.178,0.162,0.261,0.246,0.246,0.141,0.084,�k��,5.3,��
2020/10/05,18:40,0.178,0.160,0.260,0.247,0.246,0.139,0.086,�k��,6.7,��
2020/10/05,18:50,0.179,0.162,0.259,0.245,0.247,0.139,0.084,�k��,5.9,��
2020/10/05,19:00,0.177,0.160,0.260,0.248,0.245,0.141,0.084,�k��,5.0,��
2020/10/05,19:10,0.179,0.161,0.258,0.246,0.247,0.140,0.085,�k�k��,3.5,��
2020/10/05,19:20,0.179,0.160,0.260,0.246,0.244,0.141,0.085,�k�k��,3.4,��
2020/10/05,19:30,0.178,0.161,0.258,0.247,0.247,0.140,0.084,�k��,4.1,��
2020/10/05,19:40,0.179,0.161,0.260,0.245,0.245,0.140,0.084,�k��,3.5,��
2020/10/05,19:50,0.178,0.160,0.258,0.246,0.245,0.140,0.085,�k�k��,2.4,��
2020/10/05,20:00,0.179,0.161,0.260,0.245,0.248,0.141,0.085,�k��,3.3,��
2020/10/05,20:10,0.179,0.160,0.259,0.247,0.245,0.140,0.086,�k�k��,3.4,��
2020/10/05,20:20,0.179,0.162,0.258,0.245,0.246,0.141,0.084,�k��,2.5,��
2020/10/05,20:30,0.178,0.160,0.259,0.247,0.245,0.140,0.084,�k�k��,3.2,��
2020/10/05,20:40,0.178,0.161,0.258,0.245,0.248,0.140,0.085,�k�k��,4.3,��
2020/10/05,20:50,0.178,0.160,0.260,0.246,0.246,0.140,0.084,�k�k��,3.5,��
2020/10/05,21:00,0.178,0.162,0.258,0.246,0.246,0.139,0.084,�k��,2.6,��
2020/10/05,21:10,0.179,0.160,0.259,0.247,0.245,0.141,0.084,�k�k��,3.2,��
2020/10/05,21:20,0.178,0.161,0.258,0.246,0.243,0.139,0.085,�k�k��,2.3,��
2020/10/05,21:30,0.180,0.160,0.261,0.246,0.247,0.140,0.084,�k��,4.7,��
2020/10/05,21:40,0.179,0.161,0.258,0.246,0.244,0.139,0.085,�k,1.5,��
2020/10/05,21:50,0.180,0.161,0.261,0.245,0.247,0.141,0.084,�k�k��,3.2,��
2020/10/05,22:00,0.178,0.160,0.258,0.247,0.245,0.140,0.085,�k��,2.9,��
2020/10/05,22:10,0.178,0.159,0.260,0.244,0.246,0.140,0.084,�k�k��,2.5,��
2020/10/05,22:20,0.178,0.161,0.258,0.247,0.245,0.140,0.084,�k�k��,3.2,��
2020/10/05,22:30,0.178,0.161,0.261,0.246,0.246,0.140,0.084,�k,2.8,��
2020/10/05,22:40,0.179,0.161,0.259,0.247,0.246,0.140,0.085,�k�k��,3.8,��
2020/10/05,22:50,0.178,0.160,0.260,0.245,0.245,0.140,0.084,�k�k��,3.1,��
2020/10/05,23:00,0.178,0.161,0.259,0.247,0.247,0.139,0.085,�k��,3.2,��
2020/10/05,23:10,0.179,0.161,0.261,0.246,0.244,0.140,0.085,�k,2.9,��
2020/10/05,23:20,0.178,0.161,0.259,0.246,0.246,0.140,0.084,�k��,4.3,��
2020/10/05,23:30,0.177,0.160,0.260,0.245,0.244,0.140,0.084,�k��,5.5,��
2020/10/05,23:40,0.178,0.161,0.259,0.247,0.247,0.140,0.084,���k��,4.6,��
2020/10/05,23:50,0.179,0.161,0.260,0.246,0.245,0.140,0.085,�k��,6.4,��
